QPF
0.01 0.00 0.00 0.00 0.00 0.00 0.00 0.00 0.00 0.00 0.00 0.00 0.00 0.00 0.00 0.01 0.01 0.02 0.03 0.02 0.01 0.01 0.01 0.02 0.05 0.06 0.06 0.07 0.08 0.06 0.05 0.04 0.04 0.05 0.05 0.06 0.05 0.05 0.05 0.06 0.07 0.07 0.06 0.05 0.05 0.06 0.06 0.08 0.11
0.00 0.00 0.00 0.00 0.01 0.01 0.00 0.01 0.01 0.00 0.00 0.01 0.00 0.00 0.01 0.02 0.01 0.01 0.02 0.01 0.01 0.01 0.01 0.01 0.04 0.06 0.05 0.05 0.05 0.04 0.04 0.02 0.02 0.03 0.06 0.08 0.07 0.06 0.05 0.05 0.06 0.07 0.06 0.03 0.03 0.04 0.05 0.06 0.07
0.00 0.00 0.00 0.00 0.00 0.01 0.00 0.01 0.00 0.00 0.01 0.01 0.01 0.01 0.02 0.02 0.01 0.02 0.03 0.01 0.00 0.01 0.01 0.02 0.05 0.05 0.06 0.05 0.04 0.03 0.03 0.02 0.03 0.03 0.06 0.08 0.08 0.08 0.08 0.07 0.07 0.06 0.05 0.04 0.03 0.03 0.04 0.06 0.06
0.00 0.00 0.00 0.01 0.00 0.00 0.00 0.00 0.00 0.00 0.01 0.01 0.01 0.01 0.01 0.01 0.02 0.03 0.01 0.00 0.01 0.01 0.02 0.03 0.04 0.04 0.05 0.05 0.04 0.03 0.03 0.03 0.04 0.05 0.08 0.09 0.09 0.10 0.10 0.08 0.07 0.06 0.05 0.05 0.04 0.04 0.04 0.05 0.05
0.00 0.00 0.01 0.01 0.00 0.00 0.00 0.00 0.00 0.00 0.01 0.01 0.01 0.00 0.01 0.02 0.02 0.01 0.01 0.01 0.01 0.00 0.01 0.01 0.03 0.04 0.05 0.04 0.03 0.03 0.02 0.02 0.04 0.06 0.07 0.06 0.07 0.08 0.08 0.07 0.06 0.08 0.07 0.06 0.04 0.05 0.05 0.05 0.05
0.00 0.01 0.01 0.00 0.00 0.00 0.00 0.00 0.00 0.00 0.00 0.00 0.00 0.00 0.01 0.02 0.02 0.01 0.01 0.01 0.02 0.01 0.01 0.02 0.02 0.03 0.04 0.03 0.03 0.03 0.03 0.03 0.03 0.05 0.04 0.03 0.05 0.05 0.05 0.05 0.06 0.08 0.08 0.07 0.05 0.06 0.05 0.06 0.05
0.00 0.00 0.00 0.00 0.00 0.00 0.00 0.00 0.01 0.00 0.00 0.00 0.00 0.00 0.01 0.01 0.01 0.01 0.01 0.01 0.02 0.01 0.02 0.03 0.02 0.02 0.02 0.03 0.03 0.03 0.03 0.04 0.04 0.05 0.04 0.03 0.04 0.05 0.05 0.05 0.06 0.08 0.10 0.08 0.08 0.07 0.06 0.06 0.06
0.00 0.00 0.00 0.00 0.00 0.01 0.00 0.00 0.00 0.00 0.00 0.00 0.00 0.00 0.00 0.01 0.01 0.01 0.01 0.01 0.01 0.01 0.02 0.03 0.02 0.02 0.02 0.02 0.02 0.02 0.03 0.04 0.04 0.05 0.04 0.04 0.04 0.05 0.05 0.05 0.05 0.06 0.08 0.09 0.07 0.05 0.06 0.06 0.06
0.00 0.00 0.00 0.00 0.00 0.01 0.01 0.00 0.00 0.00 0.00 0.00 0.01 0.01 0.00 0.01 0.01 0.01 0.01 0.01 0.01 0.01 0.01 0.02 0.02 0.02 0.02 0.02 0.01 0.01 0.01 0.03 0.05 0.06 0.06 0.06 0.05 0.07 0.08 0.08 0.09 0.08 0.07 0.08 0.09 0.06 0.05 0.04 0.05
0.00 0.00 0.00 0.00 0.00 0.00 0.00 0.00 0.00 0.00 0.00 0.00 0.00 0.01 0.01 0.01 0.01 0.01 0.00 0.01 0.01 0.01 0.01 0.01 0.02 0.02 0.02 0.02 0.01 0.01 0.01 0.02 0.05 0.12 0.10 0.07 0.06 0.06 0.06 0.07 0.07 0.06 0.05 0.05 0.06 0.07 0.05 0.02 0.02
0.00 0.00 0.00 0.00 0.00 0.00 0.00 0.00 0.00 0.00 0.01 0.01 0.00 0.01 0.00 0.01 0.01 0.00 0.00 0.01 0.01 0.00 0.00 0.01 0.01 0.01 0.01 0.01 0.02 0.01 0.02 0.03 0.04 0.10 0.12 0.08 0.04 0.03 0.04 0.04 0.04 0.04 0.04 0.04 0.04 0.03 0.03 0.01 0.01
0.00 0.00 0.00 0.00 0.00 0.00 0.00 0.00 0.00 0.00 0.00 0.01 0.01 0.00 0.00 0.00 0.01 0.00 0.00 0.00 0.00 0.00 0.00 0.00 0.01 0.01 0.01 0.02 0.02 0.01 0.01 0.02 0.04 0.09 0.10 0.06 0.03 0.01 0.01 0.03 0.03 0.03 0.03 0.02 0.02 0.02 0.02 0.02 0.01
0.00 0.00 0.00 0.00 0.00 0.00 0.00 0.00 0.00 0.00 0.00 0.00 0.00 0.00 0.00 0.00 0.00 0.01 0.01 0.01 0.01 0.00 0.00 0.00 0.00 0.00 0.01 0.02 0.03 0.03 0.02 0.01 0.02 0.06 0.07 0.05 0.02 0.01 0.01 0.02 0.03 0.03 0.02 0.01 0.01 0.01 0.02 0.01 0.01
0.00 0.00 0.00 0.00 0.00 0.00 0.00 0.00 0.00 0.00 0.00 0.00 0.00 0.00 0.00 0.01 0.01 0.01 0.00 0.00 0.01 0.00 0.01 0.01 0.00 0.00 0.01 0.01 0.02 0.03 0.03 0.02 0.02 0.02 0.03 0.03 0.02 0.02 0.01 0.01 0.02 0.02 0.01 0.01 0.00 0.00 0.01 0.01 0.02
0.00 0.00 0.00 0.01 0.01 0.01 0.01 0.01 0.01 0.00 0.01 0.00 0.00 0.01 0.01 0.01 0.01 0.01 0.00 0.00 0.00 0.00 0.01 0.01 0.01 0.00 0.01 0.01 0.02 0.02 0.03 0.03 0.03 0.03 0.02 0.03 0.03 0.02 0.02 0.02 0.02 0.02 0.01 0.01 0.00 0.00 0.01 0.01 0.02
0.00 0.00 0.01 0.01 0.00 0.01 0.01 0.01 0.01 0.01 0.01 0.00 0.00 0.01 0.01 0.01 0.00 0.00 0.00 0.00 0.01 0.01 0.01 0.01 0.01 0.01 0.01 0.01 0.01 0.02 0.04 0.05 0.07 0.10 0.07 0.04 0.03 0.03 0.04 0.04 0.03 0.02 0.02 0.01 0.01 0.01 0.01 0.01 0.02
0.00 0.00 0.01 0.01 0.01 0.01 0.01 0.02 0.02 0.01 0.01 0.00 0.00 0.00 0.01 0.01 0.01 0.00 0.00 0.00 0.00 0.01 0.01 0.01 0.01 0.02 0.01 0.01 0.01 0.01 0.02 0.05 0.08 0.11 0.14 0.11 0.06 0.04 0.05 0.06 0.06 0.05 0.03 0.02 0.02 0.01 0.01 0.02 0.03
0.00 0.00 0.00 0.00 0.00 0.01 0.01 0.01 0.01 0.02 0.02 0.02 0.01 0.00 0.01 0.01 0.01 0.01 0.00 0.00 0.00 0.00 0.01 0.02 0.03 0.03 0.03 0.01 0.01 0.01 0.01 0.03 0.05 0.06 0.08 0.11 0.10 0.07 0.07 0.09 0.10 0.09 0.05 0.03 0.02 0.02 0.01 0.02 0.02
0.00 0.00 0.00 0.00 0.00 0.00 0.00 0.00 0.01 0.01 0.02 0.02 0.01 0.01 0.01 0.01 0.00 0.00 0.00 0.00 0.00 0.00 0.01 0.02 0.03 0.03 0.03 0.02 0.01 0.01 0.01 0.03 0.06 0.06 0.04 0.06 0.06 0.05 0.04 0.04 0.05 0.06 0.05 0.03 0.02 0.02 0.02 0.01 0.01
0.00 0.00 0.00 0.00 0.00 0.00 0.00 0.00 0.00 0.00 0.01 0.01 0.01 0.01 0.01 0.01 0.00 0.00 0.00 0.00 0.00 0.00 0.00 0.01 0.02 0.03 0.02 0.03 0.02 0.01 0.01 0.01 0.03 0.06 0.06 0.06 0.05 0.03 0.03 0.02 0.02 0.03 0.03 0.02 0.02 0.01 0.02 0.01 0.01
0.00 0.00 0.00 0.01 0.01 0.01 0.00 0.00 0.00 0.00 0.00 0.01 0.01 0.01 0.00 0.01 0.01 0.01 0.00 0.00 0.00 0.00 0.00 0.01 0.01 0.01 0.01 0.02 0.02 0.02 0.01 0.01 0.01 0.01 0.03 0.05 0.06 0.04 0.02 0.01 0.01 0.02 0.02 0.02 0.01 0.01 0.02 0.02 0.02
0.00 0.00 0.01 0.01 0.01 0.01 0.01 0.01 0.00 0.00 0.01 0.01 0.01 0.01 0.00 0.01 0.01 0.01 0.00 0.00 0.00 0.00 0.00 0.01 0.01 0.01 0.02 0.02 0.01 0.02 0.02 0.01 0.01 0.01 0.01 0.03 0.05 0.06 0.03 0.01 0.01 0.01 0.01 0.02 0.01 0.01 0.01 0.02 0.02
0.01 0.01 0.01 0.01 0.01 0.01 0.00 0.00 0.00 0.00 0.01 0.01 0.00 0.00 0.01 0.01 0.01 0.01 0.01 0.00 0.00 0.00 0.00 0.00 0.00 0.01 0.01 0.02 0.02 0.02 0.02 0.02 0.02 0.01 0.01 0.02 0.03 0.04 0.03 0.02 0.01 0.02 0.02 0.02 0.03 0.02 0.01 0.02 0.02
0.01 0.01 0.01 0.01 0.01 0.01 0.00 0.00 0.01 0.00 0.00 0.00 0.00 0.00 0.00 0.00 0.01 0.00 0.01 0.00 0.00 0.00 0.00 0.00 0.00 0.00 0.00 0.00 0.02 0.03 0.03 0.03 0.02 0.02 0.01 0.02 0.02 0.03 0.03 0.02 0.02 0.02 0.02 0.02 0.03 0.04 0.03 0.02 0.02
0.01 0.01 0.01 0.02 0.01 0.00 0.00 0.00 0.01 0.00 0.00 0.00 0.00 0.00 0.00 0.00 0.01 0.00 0.00 0.00 0.00 0.00 0.00 0.00 0.00 0.00 0.00 0.00 0.01 0.02 0.02 0.02 0.02 0.02 0.02 0.02 0.02 0.01 0.02 0.01 0.01 0.01 0.01 0.01 0.02 0.03 0.02 0.01 0.01
0.01 0.01 0.01 0.01 0.01 0.00 0.00 0.00 0.00 0.00 0.00 0.00 0.00 0.00 0.00 0.01 0.01 0.01 0.01 0.01 0.01 0.00 0.00 0.00 0.00 0.00 0.00 0.00 0.01 0.01 0.01 0.02 0.02 0.02 0.02 0.02 0.02 0.01 0.01 0.01 0.01 0.01 0.01 0.01 0.02 0.03 0.04 0.01 0.01
0.01 0.00 0.00 0.01 0.00 0.00 0.00 0.00 0.00 0.00 0.00 0.00 0.00 0.00 0.00 0.00 0.01 0.01 0.01 0.01 0.01 0.01 0.01 0.01 0.01 0.00 0.00 0.01 0.01 0.01 0.02 0.02 0.03 0.03 0.03 0.03 0.03 0.03 0.02 0.02 0.03 0.03 0.02 0.01 0.01 0.02 0.04 0.04 0.01
0.00 0.00 0.00 0.01 0.01 0.01 0.01 0.00 0.00 0.00 0.00 0.00 0.00 0.00 0.00 0.00 0.01 0.01 0.01 0.01 0.01 0.01 0.01 0.01 0.01 0.01 0.00 0.00 0.01 0.01 0.01 0.02 0.02 0.02 0.02 0.03 0.04 0.03 0.03 0.03 0.03 0.03 0.03 0.02 0.01 0.01 0.03 0.05 0.03
0.00 0.00 0.01 0.01 0.01 0.01 0.01 0.01 0.00 0.00 0.00 0.00 0.00 0.00 0.00 0.00 0.01 0.01 0.01 0.00 0.00 0.01 0.01 0.01 0.01 0.00 0.00 0.00 0.00 0.01 0.01 0.01 0.01 0.01 0.02 0.02 0.03 0.03 0.03 0.04 0.03 0.03 0.03 0.04 0.02 0.01 0.02 0.05 0.05
0.01 0.01 0.01 0.01 0.01 0.01 0.00 0.00 0.00 0.00 0.00 0.00 0.00 0.00 0.00 0.00 0.00 0.00 0.01 0.00 0.00 0.00 0.01 0.00 0.01 0.01 0.01 0.01 0.00 0.01 0.01 0.01 0.01 0.02 0.02 0.02 0.03 0.03 0.02 0.03 0.03 0.03 0.02 0.04 0.04 0.02 0.02 0.03 0.04
MSLP
1004.52 1005.34 1006.55 1008.03 1009.62 1011.13 1012.41 1013.35 1013.90 1014.08 1014.02 1013.83 1013.66 1013.58 1013.64 1013.81 1014.00 1014.12 1014.05 1013.75 1013.21 1012.48 1011.66 1010.84 1010.14 1009.61 1009.25 1009.06 1008.95 1008.88 1008.79 1008.66 1008.47 1008.26 1008.06 1007.89 1007.77 1007.67 1007.59 1007.50 1007.39 1007.25 1007.12 1007.01 1006.98 1007.03 1007.18 1007.41 1007.70
1005.03 1006.10 1007.51 1009.12 1010.74 1012.20 1013.34 1014.08 1014.41 1014.39 1014.15 1013.86 1013.63 1013.56 1013.66 1013.89 1014.15 1014.32 1014.31 1014.05 1013.55 1012.87 1012.10 1011.36 1010.73 1010.26 1009.97 1009.81 1009.74 1009.67 1009.57 1009.41 1009.19 1008.94 1008.69 1008.47 1008.29 1008.14 1008.01 1007.88 1007.73 1007.57 1007.42 1007.31 1007.26 1007.30 1007.41 1007.60 1007.85
1005.77 1007.03 1008.57 1010.22 1011.79 1013.12 1014.07 1014.60 1014.72 1014.52 1014.16 1013.80 1013.56 1013.51 1013.65 1013.92 1014.22 1014.42 1014.42 1014.18 1013.72 1013.08 1012.38 1011.72 1011.18 1010.81 1010.60 1010.50 1010.47 1010.42 1010.32 1010.14 1009.90 1009.62 1009.33 1009.08 1008.85 1008.67 1008.50 1008.34 1008.17 1008.01 1007.86 1007.74 1007.68 1007.68 1007.76 1007.89 1008.06
1006.70 1008.09 1009.67 1011.27 1012.72 1013.87 1014.61 1014.93 1014.87 1014.54 1014.12 1013.74 1013.52 1013.51 1013.69 1013.98 1014.28 1014.46 1014.44 1014.20 1013.74 1013.15 1012.52 1011.95 1011.52 1011.25 1011.12 1011.10 1011.10 1011.09 1010.99 1010.81 1010.56 1010.27 1009.97 1009.69 1009.45 1009.25 1009.07 1008.90 1008.74 1008.57 1008.42 1008.30 1008.22 1008.18 1008.20 1008.26 1008.35
1007.77 1009.21 1010.75 1012.24 1013.51 1014.44 1014.97 1015.10 1014.91 1014.52 1014.09 1013.75 1013.58 1013.61 1013.82 1014.11 1014.37 1014.51 1014.44 1014.16 1013.71 1013.15 1012.59 1012.12 1011.79 1011.61 1011.57 1011.61 1011.66 1011.66 1011.58 1011.41 1011.16 1010.87 1010.58 1010.31 1010.08 1009.89 1009.72 1009.57 1009.41 1009.25 1009.10 1008.97 1008.86 1008.77 1008.72 1008.70 1008.70
1008.86 1010.29 1011.73 1013.05 1014.11 1014.82 1015.16 1015.15 1014.89 1014.49 1014.11 1013.84 1013.75 1013.84 1014.06 1014.33 1014.53 1014.59 1014.46 1014.14 1013.68 1013.16 1012.67 1012.28 1012.05 1011.97 1012.00 1012.08 1012.16 1012.17 1012.09 1011.92 1011.69 1011.42 1011.16 1010.92 1010.73 1010.56 1010.42 1010.29 1010.15 1010.00 1009.84 1009.69 1009.54 1009.41 1009.29 1009.19 1009.11
1009.90 1011.25 1012.55 1013.67 1014.51 1015.02 1015.20 1015.11 1014.82 1014.48 1014.18 1014.01 1014.01 1014.16 1014.39 1014.62 1014.76 1014.74 1014.54 1014.18 1013.72 1013.24 1012.83 1012.53 1012.39 1012.37 1012.45 1012.55 1012.63 1012.63 1012.55 1012.38 1012.16 1011.92 1011.69 1011.50 1011.35 1011.23 1011.12 1011.01 1010.89 1010.74 1010.58 1010.40 1010.23 1010.05 1009.88 1009.71 1009.57
1010.81 1012.04 1013.17 1014.09 1014.73 1015.07 1015.14 1014.99 1014.74 1014.48 1014.29 1014.24 1014.33 1014.52 1014.75 1014.94 1015.01 1014.92 1014.67 1014.29 1013.86 1013.44 1013.10 1012.89 1012.82 1012.85 1012.95 1013.05 1013.10 1013.08 1012.97 1012.79 1012.58 1012.37 1012.19 1012.04 1011.94 1011.85 1011.77 1011.67 1011.56 1011.41 1011.24 1011.05 1010.85 1010.65 1010.45 1010.25 1010.07
1011.55 1012.65 1013.60 1014.33 1014.79 1015.00 1015.00 1014.86 1014.66 1014.50 1014.43 1014.49 1014.65 1014.87 1015.09 1015.23 1015.25 1015.11 1014.84 1014.48 1014.09 1013.75 1013.50 1013.37 1013.35 1013.41 1013.51 1013.58 1013.59 1013.52 1013.38 1013.19 1012.98 1012.79 1012.64 1012.53 1012.45 1012.39 1012.32 1012.23 1012.11 1011.96 1011.79 1011.60 1011.40 1011.20 1010.99 1010.80 1010.62
1012.13 1013.09 1013.88 1014.44 1014.77 1014.88 1014.84 1014.72 1014.59 1014.53 1014.57 1014.71 1014.92 1015.16 1015.36 1015.46 1015.44 1015.28 1015.02 1014.70 1014.39 1014.14 1013.98 1013.92 1013.95 1014.03 1014.10 1014.12 1014.08 1013.96 1013.78 1013.58 1013.37 1013.20 1013.06 1012.97 1012.90 1012.84 1012.77 1012.67 1012.54 1012.39 1012.22 1012.05 1011.87 1011.70 1011.53 1011.38 1011.23
1012.60 1013.43 1014.07 1014.49 1014.71 1014.76 1014.71 1014.63 1014.57 1014.59 1014.70 1014.89 1015.13 1015.36 1015.53 1015.61 1015.56 1015.41 1015.19 1014.94 1014.72 1014.57 1014.50 1014.51 1014.57 1014.65 1014.69 1014.67 1014.57 1014.41 1014.20 1013.98 1013.77 1013.61 1013.48 1013.39 1013.31 1013.23 1013.14 1013.01 1012.87 1012.72 1012.57 1012.43 1012.30 1012.19 1012.09 1012.00 1011.91
1013.01 1013.72 1014.23 1014.54 1014.68 1014.70 1014.65 1014.60 1014.60 1014.67 1014.82 1015.03 1015.27 1015.48 1015.62 1015.67 1015.62 1015.50 1015.33 1015.17 1015.05 1015.00 1015.01 1015.08 1015.17 1015.23 1015.24 1015.17 1015.04 1014.85 1014.62 1014.40 1014.21 1014.05 1013.92 1013.82 1013.72 1013.60 1013.47 1013.31 1013.15 1013.00 1012.88 1012.79 1012.73 1012.70 1012.69 1012.67 1012.66
1013.42 1014.01 1014.42 1014.64 1014.73 1014.72 1014.68 1014.65 1014.68 1014.77 1014.94 1015.14 1015.34 1015.51 1015.62 1015.66 1015.62 1015.55 1015.46 1015.39 1015.37 1015.40 1015.49 1015.59 1015.69 1015.73 1015.72 1015.63 1015.47 1015.28 1015.06 1014.86 1014.69 1014.54 1014.42 1014.29 1014.16 1014.00 1013.81 1013.62 1013.45 1013.30 1013.21 1013.18 1013.20 1013.26 1013.33 1013.40 1013.46
1013.85 1014.34 1014.65 1014.81 1014.85 1014.83 1014.79 1014.77 1014.80 1014.90 1015.04 1015.20 1015.36 1015.49 1015.58 1015.61 1015.60 1015.58 1015.57 1015.59 1015.66 1015.76 1015.89 1016.02 1016.11 1016.15 1016.12 1016.02 1015.88 1015.70 1015.53 1015.37 1015.23 1015.10 1014.98 1014.83 1014.66 1014.45 1014.23 1014.00 1013.81 1013.68 1013.62 1013.65 1013.74 1013.88 1014.03 1014.17 1014.28
1014.31 1014.70 1014.93 1015.03 1015.04 1015.00 1014.95 1014.93 1014.95 1015.02 1015.12 1015.24 1015.35 1015.44 1015.50 1015.54 1015.57 1015.61 1015.67 1015.77 1015.91 1016.07 1016.23 1016.37 1016.45 1016.48 1016.45 1016.37 1016.25 1016.13 1016.01 1015.91 1015.81 1015.72 1015.60 1015.44 1015.24 1014.99 1014.73 1014.47 1014.27 1014.15 1014.13 1014.20 1014.35 1014.55 1014.75 1014.93 1015.06
1014.77 1015.07 1015.23 1015.28 1015.26 1015.20 1015.15 1015.12 1015.11 1015.14 1015.19 1015.24 1015.30 1015.35 1015.40 1015.45 1015.52 1015.62 1015.76 1015.93 1016.12 1016.31 1016.49 1016.63 1016.71 1016.74 1016.72 1016.67 1016.60 1016.54 1016.50 1016.46 1016.43 1016.37 1016.26 1016.10 1015.87 1015.60 1015.30 1015.04 1014.83 1014.73 1014.72 1014.82 1015.00 1015.22 1015.45 1015.63 1015.77
1015.18 1015.41 1015.51 1015.52 1015.48 1015.42 1015.36 1015.30 1015.26 1015.24 1015.22 1015.21 1015.21 1015.22 1015.26 1015.33 1015.45 1015.61 1015.81 1016.03 1016.27 1016.49 1016.68 1016.82 1016.91 1016.94 1016.95 1016.94 1016.94 1016.95 1016.98 1017.02 1017.04 1017.01 1016.92 1016.76 1016.52 1016.24 1015.94 1015.67 1015.47 1015.37 1015.38 1015.49 1015.67 1015.88 1016.09 1016.25 1016.36
1015.53 1015.68 1015.75 1015.74 1015.71 1015.65 1015.58 1015.50 1015.41 1015.32 1015.23 1015.15 1015.09 1015.06 1015.08 1015.17 1015.32 1015.53 1015.79 1016.07 1016.34 1016.59 1016.79 1016.94 1017.03 1017.09 1017.13 1017.18 1017.24 1017.33 1017.43 1017.53 1017.60 1017.61 1017.54 1017.39 1017.16 1016.88 1016.58 1016.33 1016.14 1016.05 1016.06 1016.16 1016.32 1016.50 1016.66 1016.77 1016.83
1015.77 1015.89 1015.94 1015.95 1015.94 1015.89 1015.82 1015.72 1015.59 1015.42 1015.25 1015.07 1014.93 1014.85 1014.85 1014.94 1015.12 1015.37 1015.68 1016.00 1016.32 1016.59 1016.81 1016.98 1017.10 1017.19 1017.28 1017.38 1017.51 1017.67 1017.83 1017.99 1018.09 1018.13 1018.08 1017.95 1017.73 1017.48 1017.21 1016.98 1016.81 1016.74 1016.74 1016.82 1016.93 1017.05 1017.15 1017.20 1017.20
1015.93 1016.04 1016.12 1016.18 1016.21 1016.20 1016.13 1016.01 1015.81 1015.56 1015.28 1015.00 1014.77 1014.62 1014.57 1014.64 1014.83 1015.12 1015.46 1015.82 1016.17 1016.48 1016.73 1016.93 1017.09 1017.23 1017.37 1017.54 1017.73 1017.94 1018.16 1018.35 1018.49 1018.55 1018.52 1018.41 1018.23 1018.01 1017.79 1017.60 1017.47 1017.40 1017.40 1017.45 1017.52 1017.57 1017.60 1017.57 1017.51
1016.02 1016.17 1016.31 1016.45 1016.55 1016.59 1016.54 1016.38 1016.12 1015.77 1015.36 1014.96 1014.61 1014.36 1014.25 1014.29 1014.47 1014.76 1015.13 1015.52 1015.91 1016.25 1016.55 1016.79 1017.00 1017.20 1017.40 1017.63 1017.88 1018.14 1018.40 1018.62 1018.78 1018.86 1018.86 1018.78 1018.64 1018.48 1018.31 1018.17 1018.08 1018.04 1018.04 1018.06 1018.08 1018.07 1018.02 1017.93 1017.81
1016.11 1016.32 1016.57 1016.80 1016.99 1017.09 1017.05 1016.86 1016.52 1016.05 1015.51 1014.96 1014.48 1014.12 1013.92 1013.90 1014.05 1014.34 1014.72 1015.14 1015.55 1015.93 1016.27 1016.57 1016.83 1017.09 1017.35 1017.64 1017.94 1018.25 1018.53 1018.78 1018.96 1019.07 1019.10 1019.06 1018.97 1018.87 1018.77 1018.70 1018.66 1018.65 1018.65 1018.65 1018.63 1018.57 1018.46 1018.33 1018.17
1016.22 1016.54 1016.90 1017.24 1017.52 1017.67 1017.64 1017.41 1016.98 1016.38 1015.70 1015.01 1014.39 1013.91 1013.62 1013.53 1013.64 1013.90 1014.27 1014.70 1015.13 1015.55 1015.92 1016.26 1016.58 1016.90 1017.22 1017.56 1017.91 1018.25 1018.57 1018.84 1019.04 1019.18 1019.24 1019.26 1019.23 1019.20 1019.18 1019.17 1019.18 1019.21 1019.22 1019.22 1019.17 1019.08 1018.94 1018.76 1018.58
1016.40 1016.83 1017.30 1017.75 1018.11 1018.30 1018.26 1017.98 1017.45 1016.74 1015.92 1015.09 1014.34 1013.75 1013.36 1013.20 1013.25 1013.48 1013.84 1014.26 1014.70 1015.13 1015.53 1015.91 1016.27 1016.63 1017.00 1017.38 1017.77 1018.15 1018.50 1018.79 1019.03 1019.20 1019.31 1019.38 1019.42 1019.46 1019.51 1019.58 1019.64 1019.71 1019.74 1019.74 1019.69 1019.58 1019.43 1019.25 1019.06
1016.64 1017.16 1017.74 1018.27 1018.69 1018.89 1018.83 1018.49 1017.88 1017.06 1016.12 1015.17 1014.31 1013.62 1013.16 1012.93 1012.94 1013.13 1013.46 1013.86 1014.29 1014.71 1015.12 1015.51 1015.90 1016.29 1016.69 1017.11 1017.53 1017.94 1018.31 1018.64 1018.91 1019.12 1019.28 1019.42 1019.53 1019.64 1019.77 1019.89 1020.01 1020.12 1020.18 1020.19 1020.15 1020.04 1019.90 1019.74 1019.57
1016.91 1017.51 1018.15 1018.73 1019.16 1019.36 1019.26 1018.85 1018.17 1017.26 1016.24 1015.21 1014.28 1013.53 1013.02 1012.75 1012.71 1012.87 1013.16 1013.52 1013.92 1014.33 1014.72 1015.10 1015.49 1015.88 1016.30 1016.74 1017.18 1017.61 1018.01 1018.37 1018.68 1018.94 1019.16 1019.36 1019.54 1019.72 1019.91 1020.10 1020.27 1020.41 1020.50 1020.53 1020.51 1020.43 1020.32 1020.18 1020.05
1017.17 1017.81 1018.48 1019.06 1019.47 1019.62 1019.47 1019.00 1018.25 1017.29 1016.23 1015.17 1014.22 1013.46 1012.92 1012.64 1012.57 1012.70 1012.94 1013.27 1013.62 1013.98 1014.33 1014.68 1015.05 1015.43 1015.85 1016.28 1016.73 1017.18 1017.60 1017.99 1018.34 1018.65 1018.93 1019.19 1019.44 1019.69 1019.94 1020.17 1020.38 1020.56 1020.68 1020.74 1020.74 1020.70 1020.63 1020.54 1020.45
1017.37 1018.01 1018.65 1019.19 1019.54 1019.63 1019.41 1018.89 1018.11 1017.13 1016.07 1015.04 1014.12 1013.38 1012.87 1012.58 1012.51 1012.61 1012.81 1013.08 1013.37 1013.67 1013.97 1014.27 1014.60 1014.95 1015.34 1015.76 1016.20 1016.65 1017.09 1017.50 1017.89 1018.25 1018.58 1018.90 1019.22 1019.53 1019.83 1020.11 1020.36 1020.57 1020.71 1020.80 1020.84 1020.83 1020.81 1020.77 1020.74
1017.48 1018.08 1018.64 1019.09 1019.34 1019.34 1019.06 1018.50 1017.72 1016.77 1015.77 1014.80 1013.96 1013.29 1012.83 1012.58 1012.52 1012.59 1012.75 1012.96 1013.18 1013.41 1013.64 1013.88 1014.15 1014.45 1014.80 1015.19 1015.61 1016.05 1016.49 1016.92 1017.34 1017.74 1018.13 1018.51 1018.88 1019.25 1019.60 1019.93 1020.22 1020.45 1020.63 1020.74 1020.81 1020.84 1020.86 1020.87 1020.89
1017.48 1017.99 1018.44 1018.77 1018.91 1018.81 1018.47 1017.90 1017.13 1016.25 1015.35 1014.49 1013.76 1013.20 1012.82 1012.62 1012.56 1012.62 1012.74 1012.89 1013.04 1013.19 1013.35 1013.52 1013.72 1013.97 1014.27 1014.61 1015.00 1015.42 1015.85 1016.29 1016.73 1017.16 1017.60 1018.03 1018.47 1018.90 1019.31 1019.68 1020.00 1020.27 1020.47 1020.61 1020.70 1020.76 1020.81 1020.87 1020.93
Thickness
5795 5798 5798 5791 5775 5758 5743 5744 5752 5751 5753 5759 5761 5760 5754 5750 5745 5737 5753 5762 5763 5763 5762 5760 5758 5759 5760 5761 5761 5762 5762 5762 5762 5762 5762 5763 5762 5762 5762 5762 5762 5762 5762 5762 5762 5762 5762 5762 5762
5798 5797 5792 5782 5762 5743 5735 5745 5746 5750 5755 5759 5760 5759 5755 5750 5754 5753 5755 5759 5761 5761 5760 5758 5756 5756 5757 5758 5758 5759 5759 5759 5759 5760 5760 5759 5759 5759 5759 5759 5759 5759 5758 5758 5759 5759 5759 5759 5758
5796 5795 5781 5768 5753 5743 5736 5745 5748 5752 5757 5757 5755 5757 5753 5747 5752 5753 5756 5759 5760 5759 5757 5755 5753 5754 5754 5755 5755 5755 5756 5756 5757 5757 5757 5756 5756 5755 5755 5755 5755 5755 5755 5755 5755 5755 5755 5755 5755
5793 5785 5775 5758 5741 5743 5746 5749 5752 5751 5752 5756 5755 5749 5750 5752 5753 5755 5757 5758 5758 5756 5754 5752 5750 5750 5751 5751 5752 5752 5753 5753 5753 5753 5753 5753 5752 5751 5751 5751 5751 5751 5751 5752 5752 5752 5751 5751 5751
5789 5775 5757 5743 5738 5744 5751 5753 5754 5749 5748 5751 5752 5744 5742 5749 5754 5755 5755 5755 5755 5754 5752 5750 5747 5747 5747 5748 5748 5749 5749 5749 5750 5750 5749 5749 5748 5748 5748 5748 5748 5748 5748 5748 5748 5748 5748 5747 5747
5774 5768 5748 5736 5735 5742 5749 5753 5753 5747 5746 5747 5748 5743 5740 5747 5750 5751 5753 5752 5752 5751 5750 5748 5744 5744 5744 5744 5745 5745 5746 5746 5746 5746 5745 5745 5744 5744 5744 5744 5744 5744 5744 5744 5744 5744 5743 5743 5742
5766 5757 5744 5738 5734 5736 5743 5752 5749 5745 5743 5744 5749 5741 5739 5743 5746 5748 5750 5750 5749 5748 5747 5747 5746 5744 5742 5742 5741 5742 5742 5742 5742 5742 5742 5741 5741 5740 5740 5740 5740 5740 5740 5740 5739 5739 5739 5738 5738
5771 5757 5741 5739 5734 5733 5743 5748 5748 5746 5742 5748 5749 5739 5734 5740 5745 5746 5746 5747 5746 5746 5745 5745 5744 5744 5744 5742 5739 5739 5739 5739 5739 5739 5739 5738 5738 5738 5737 5737 5736 5736 5736 5735 5735 5734 5734 5734 5733
5771 5751 5737 5736 5735 5735 5743 5742 5744 5748 5744 5743 5744 5742 5741 5743 5744 5742 5741 5741 5741 5742 5742 5743 5743 5742 5741 5740 5738 5738 5737 5737 5738 5738 5737 5738 5738 5737 5735 5733 5732 5732 5731 5731 5731 5730 5730 5730 5730
5761 5743 5737 5744 5745 5741 5741 5741 5742 5740 5735 5735 5736 5737 5740 5739 5739 5737 5736 5736 5737 5738 5739 5741 5741 5740 5739 5738 5737 5737 5737 5736 5737 5738 5737 5736 5735 5733 5732 5729 5728 5728 5728 5727 5727 5727 5728 5729 5729
5754 5742 5742 5744 5746 5744 5739 5738 5741 5736 5728 5731 5731 5732 5735 5735 5735 5734 5734 5734 5734 5736 5736 5737 5738 5737 5737 5736 5735 5734 5734 5733 5734 5734 5734 5733 5732 5731 5730 5729 5727 5726 5726 5726 5725 5726 5726 5726 5725
5747 5743 5744 5742 5742 5741 5737 5736 5734 5731 5730 5737 5737 5735 5733 5731 5731 5731 5731 5732 5732 5732 5733 5734 5735 5735 5734 5733 5733 5732 5731 5731 5730 5730 5730 5730 5729 5728 5727 5726 5724 5724 5723 5722 5722 5722 5722 5723 5723
5741 5737 5740 5740 5739 5738 5736 5731 5729 5727 5732 5735 5734 5732 5730 5730 5730 5731 5731 5731 5730 5729 5730 5731 5732 5732 5732 5730 5729 5730 5728 5728 5727 5726 5727 5726 5725 5725 5723 5722 5720 5720 5719 5719 5719 5719 5718 5719 5718
5739 5738 5736 5736 5735 5734 5728 5726 5725 5722 5729 5729 5728 5727 5728 5727 5727 5728 5728 5728 5728 5728 5729 5729 5729 5729 5729 5729 5728 5727 5726 5724 5724 5723 5723 5723 5722 5721 5719 5719 5717 5716 5716 5715 5715 5715 5714 5714 5714
5741 5732 5729 5730 5731 5730 5727 5715 5718 5722 5725 5723 5723 5724 5724 5724 5724 5724 5726 5726 5726 5727 5727 5726 5726 5726 5726 5725 5724 5723 5722 5721 5721 5719 5719 5719 5717 5717 5716 5715 5714 5713 5712 5712 5712 5711 5710 5710 5709
5735 5726 5716 5721 5726 5725 5720 5704 5715 5720 5720 5718 5720 5721 5719 5720 5722 5723 5724 5724 5724 5724 5724 5724 5723 5723 5722 5721 5720 5720 5719 5718 5717 5715 5715 5715 5714 5713 5711 5710 5710 5708 5708 5708 5707 5707 5706 5705 5705
5723 5715 5712 5714 5723 5722 5716 5706 5712 5717 5716 5715 5716 5718 5717 5718 5718 5720 5721 5722 5722 5722 5721 5720 5720 5719 5718 5717 5717 5716 5715 5714 5713 5711 5710 5710 5710 5709 5708 5706 5705 5704 5703 5703 5702 5702 5701 5700 5699
5713 5714 5710 5709 5716 5715 5710 5708 5711 5714 5713 5713 5714 5716 5716 5715 5716 5718 5718 5719 5719 5719 5719 5717 5716 5715 5715 5713 5714 5712 5711 5710 5709 5707 5706 5705 5705 5705 5704 5702 5702 5701 5699 5698 5698 5697 5696 5695 5695
5719 5713 5708 5709 5714 5709 5706 5707 5709 5712 5711 5711 5712 5713 5713 5714 5716 5716 5715 5715 5715 5715 5715 5713 5712 5711 5711 5709 5708 5707 5706 5705 5704 5703 5702 5701 5700 5699 5699 5698 5697 5695 5694 5693 5693 5692 5691 5690 5691
5714 5708 5706 5707 5710 5707 5704 5705 5710 5711 5709 5710 5710 5711 5711 5711 5711 5711 5711 5711 5711 5710 5710 5710 5709 5708 5707 5705 5705 5703 5702 5701 5700 5699 5697 5696 5696 5694 5694 5694 5693 5691 5689 5689 5688 5686 5685 5685 5685
5707 5705 5704 5702 5705 5706 5701 5701 5706 5710 5709 5708 5708 5710 5711 5709 5708 5708 5707 5707 5706 5705 5705 5705 5705 5705 5703 5701 5700 5698 5697 5697 5697 5695 5693 5692 5691 5690 5689 5689 5688 5687 5686 5684 5682 5681 5679 5679 5680
5701 5707 5705 5701 5698 5698 5697 5691 5704 5707 5705 5705 5706 5707 5706 5706 5706 5704 5703 5702 5702 5701 5701 5701 5700 5700 5699 5697 5695 5694 5692 5691 5691 5691 5689 5688 5686 5685 5684 5684 5683 5682 5681 5680 5678 5677 5676 5674 5673
5702 5704 5703 5700 5697 5695 5698 5692 5700 5705 5700 5703 5705 5705 5704 5704 5703 5701 5700 5698 5698 5697 5696 5695 5694 5693 5693 5692 5690 5689 5688 5687 5686 5685 5684 5683 5682 5680 5679 5679 5678 5677 5676 5675 5674 5672 5671 5670 5668
5701 5699 5697 5696 5694 5683 5691 5687 5690 5700 5699 5701 5703 5703 5702 5701 5699 5698 5696 5694 5693 5692 5690 5689 5688 5687 5686 5686 5686 5685 5683 5681 5680 5679 5678 5678 5677 5675 5674 5673 5673 5672 5671 5670 5668 5667 5666 5665 5663
5697 5691 5681 5678 5678 5682 5688 5682 5688 5699 5700 5699 5699 5700 5700 5698 5696 5694 5691 5689 5687 5685 5684 5684 5683 5681 5681 5681 5680 5679 5678 5677 5675 5674 5673 5672 5671 5670 5670 5669 5668 5667 5665 5664 5663 5662 5661 5660 5658
5691 5691 5676 5667 5671 5682 5682 5680 5693 5698 5697 5697 5697 5697 5696 5694 5692 5689 5687 5684 5682 5680 5679 5679 5677 5676 5675 5675 5674 5674 5672 5670 5670 5669 5668 5667 5667 5666 5665 5664 5663 5661 5660 5659 5657 5657 5656 5655 5653
5685 5685 5688 5680 5676 5672 5680 5685 5691 5694 5692 5691 5691 5690 5689 5689 5687 5684 5682 5680 5678 5676 5674 5673 5672 5671 5669 5669 5668 5667 5666 5665 5663 5663 5662 5661 5661 5660 5659 5659 5657 5656 5655 5653 5652 5651 5650 5649 5648
5687 5685 5679 5672 5662 5663 5672 5676 5681 5683 5684 5686 5685 5684 5684 5683 5682 5679 5677 5675 5674 5672 5670 5669 5667 5665 5664 5662 5661 5659 5659 5659 5658 5657 5656 5655 5654 5653 5653 5653 5652 5650 5649 5648 5646 5645 5643 5643 5641
5676 5674 5674 5673 5670 5661 5660 5672 5686 5683 5683 5681 5681 5680 5679 5677 5676 5674 5672 5671 5668 5666 5664 5662 5661 5659 5657 5656 5654 5653 5653 5652 5652 5650 5649 5648 5648 5647 5646 5646 5645 5644 5643 5642 5640 5638 5637 5635 5635
5677 5676 5672 5663 5663 5663 5661 5669 5687 5683 5680 5678 5676 5676 5674 5672 5670 5669 5666 5664 5662 5660 5659 5657 5655 5653 5651 5649 5648 5647 5646 5645 5645 5644 5643 5642 5641 5640 5640 5639 5638 5637 5636 5635 5634 5631 5630 5628 5627